When you browse on this site, cookies collect data to enhance your experience and personalize the content and advertising you see.
Visit our Privacy Policy to learn more. By continuing to use the site, you agree to this use of cookies and data.
  • In United Kingdom
  • List of Countries
  • For 7 days
  • Water Temperature
  • Weather Map
  • Weather Widgets
  • user-avatar
    Login

    Hourly Weather Guildford

    Today, 28 May, Thursday

    Time Temperature Precipitation Wind Pressure Humidity
    00:00 +13°C° 0 mm 3 mps 768 mmHg 83%
    01:00 +12°C° 0 mm 3 mps 768 mmHg 84%
    02:00 +12°C° 0 mm 2 mps 768 mmHg 85%
    03:00 +12°C° 0 mm 2 mps 768 mmHg 86%
    04:00 +11°C° 0 mm 3 mps 768 mmHg 84%
    05:00 +11°C° 0 mm 3 mps 768 mmHg 83%
    06:00 +12°C° 0 mm 3 mps 768 mmHg 81%
    07:00 +13°C° 0 mm 4 mps 768 mmHg 74%
    08:00 +15°C° 0 mm 4 mps 768 mmHg 67%
    09:00 +17°C° 0 mm 4 mps 768 mmHg 59%
    10:00 +18°C° 0 mm 4 mps 767 mmHg 55%
    11:00 +19°C° 0 mm 4 mps 767 mmHg 52%
    12:00 +20°C° 0 mm 4 mps 767 mmHg 49%
    13:00 +20°C° 0 mm 4 mps 766 mmHg 49%
    14:00 +20°C° 0 mm 4 mps 766 mmHg 49%
    15:00 +20°C° 0 mm 5 mps 765 mmHg 48%
    16:00 +19°C° 0 mm 4 mps 765 mmHg 52%
    17:00 +18°C° 0 mm 4 mps 765 mmHg 55%
    18:00 +17°C° 0 mm 4 mps 765 mmHg 58%
    19:00 +14°C° 0 mm 4 mps 765 mmHg 61%
    20:00 +13°C° 0 mm 4 mps 765 mmHg 64%
    21:00 +11°C° 0 mm 4 mps 765 mmHg 66%
    22:00 +10°C° 0 mm 3 mps 765 mmHg 69%
    23:00 +10°C° 0 mm 3 mps 765 mmHg 72%

    Tomorrow, 29 May, Friday

    Time Temperature Precipitation Wind Pressure Humidity
    00:00 +10°C° 0 mm 3 mps 764 mmHg 75%
    01:00 +9°C° 0 mm 3 mps 764 mmHg 79%
    02:00 +9°C° 0 mm 3 mps 764 mmHg 82%
    03:00 +9°C° 0 mm 3 mps 764 mmHg 86%
    04:00 +10°C° 0 mm 3 mps 764 mmHg 83%
    05:00 +11°C° 0 mm 3 mps 764 mmHg 81%
    06:00 +12°C° 0 mm 3 mps 764 mmHg 78%
    07:00 +13°C° 0 mm 3 mps 763 mmHg 70%
    08:00 +15°C° 0 mm 4 mps 763 mmHg 63%
    09:00 +18°C° 0 mm 4 mps 763 mmHg 55%
    10:00 +19°C° 0 mm 4 mps 763 mmHg 52%
    11:00 +20°C° 0 mm 4 mps 763 mmHg 49%
    12:00 +20°C° 0 mm 4 mps 763 mmHg 46%
    13:00 +20°C° 0 mm 4 mps 762 mmHg 46%
    14:00 +20°C° 0 mm 4 mps 762 mmHg 46%
    15:00 +20°C° 0 mm 4 mps 762 mmHg 46%
    16:00 +19°C° 0 mm 4 mps 761 mmHg 49%
    17:00 +18°C° 0 mm 4 mps 761 mmHg 53%
    18:00 +17°C° 0 mm 4 mps 761 mmHg 56%
    19:00 +14°C° 0 mm 3 mps 761 mmHg 57%
    20:00 +12°C° 0 mm 3 mps 761 mmHg 58%
    21:00 +10°C° 0 mm 3 mps 761 mmHg 59%
    22:00 +9°C° 0 mm 3 mps 761 mmHg 66%
    23:00 +9°C° 0 mm 3 mps 761 mmHg 73%

    Day after tomorrow, 30 May, Saturday

    Time Temperature Precipitation Wind Pressure Humidity
    00:00 +8°C° 0 mm 3 mps 761 mmHg 80%
    01:00 +8°C° 0 mm 3 mps 761 mmHg 83%
    02:00 +8°C° 0 mm 2 mps 760 mmHg 86%
    03:00 +8°C° 0 mm 2 mps 760 mmHg 89%
    04:00 +9°C° 0 mm 2 mps 760 mmHg 87%
    05:00 +10°C° 0 mm 3 mps 760 mmHg 85%
    06:00 +11°C° 0 mm 3 mps 760 mmHg 84%
    07:00 +13°C° 0 mm 3 mps 760 mmHg 77%
    08:00 +17°C° 0 mm 3 mps 760 mmHg 70%
    09:00 +19°C° 0 mm 4 mps 760 mmHg 62%
    10:00 +20°C° 0 mm 4 mps 760 mmHg 58%
    11:00 +20°C° 0 mm 4 mps 760 mmHg 54%
    12:00 +21°C° 0 mm 5 mps 760 mmHg 50%
    13:00 +21°C° 0 mm 4 mps 759 mmHg 51%
    14:00 +21°C° 0 mm 4 mps 759 mmHg 52%
    15:00 +22°C° 0 mm 4 mps 759 mmHg 53%
    16:00 +21°C° 0 mm 4 mps 759 mmHg 56%
    17:00 +20°C° 0 mm 4 mps 759 mmHg 59%
    18:00 +19°C° 0 mm 4 mps 758 mmHg 62%
    19:00 +17°C° 0 mm 4 mps 759 mmHg 66%
    20:00 +14°C° 0 mm 4 mps 759 mmHg 71%
    21:00 +12°C° 0 mm 3 mps 759 mmHg 75%
    22:00 +11°C° 0 mm 3 mps 759 mmHg 78%
    23:00 +11°C° 0 mm 3 mps 759 mmHg 81%

    31 May, Sunday

    Time Temperature Precipitation Wind Pressure Humidity
    00:00 +11°C° 0 mm 3 mps 759 mmHg 85%
    01:00 +10°C° 0 mm 3 mps 759 mmHg 86%
    02:00 +10°C° 0 mm 3 mps 759 mmHg 88%
    03:00 +10°C° 0 mm 3 mps 759 mmHg 90%
    04:00 +11°C° 0 mm 3 mps 759 mmHg 87%
    05:00 +12°C° 0 mm 3 mps 759 mmHg 84%
    06:00 +13°C° 0 mm 3 mps 759 mmHg 81%
    07:00 +15°C° 0 mm 4 mps 759 mmHg 73%
    08:00 +18°C° 0 mm 4 mps 760 mmHg 65%
    09:00 +19°C° 0 mm 5 mps 760 mmHg 58%
    10:00 +20°C° 0 mm 4 mps 760 mmHg 55%
    11:00 +21°C° 0 mm 4 mps 760 mmHg 52%
    12:00 +21°C° 0 mm 4 mps 760 mmHg 49%
    13:00 +21°C° 0 mm 4 mps 760 mmHg 49%
    14:00 +21°C° 0 mm 5 mps 760 mmHg 50%
    15:00 +21°C° 0 mm 5 mps 759 mmHg 50%
    16:00 +20°C° 0 mm 4 mps 759 mmHg 53%
    17:00 +19°C° 0 mm 4 mps 759 mmHg 57%
    18:00 +19°C° 0 mm 4 mps 759 mmHg 60%
    19:00 +17°C° 0 mm 4 mps 759 mmHg 65%
    20:00 +14°C° 0 mm 4 mps 759 mmHg 70%
    21:00 +12°C° 0 mm 3 mps 760 mmHg 74%
    22:00 +11°C° 0 mm 3 mps 760 mmHg 77%
    23:00 +11°C° 0 mm 3 mps 759 mmHg 80%

    1 June, Monday

    Time Temperature Precipitation Wind Pressure Humidity
    00:00 +10°C° 0 mm 3 mps 759 mmHg 83%
    01:00 +10°C° 0 mm 3 mps 759 mmHg 84%
    02:00 +9°C° 0 mm 3 mps 759 mmHg 85%
    03:00 +9°C° 0 mm 3 mps 759 mmHg 86%
    04:00 +10°C° 0 mm 3 mps 759 mmHg 82%
    05:00 +11°C° 0 mm 3 mps 759 mmHg 79%
    06:00 +12°C° 0 mm 3 mps 759 mmHg 76%
    07:00 +13°C° 0 mm 4 mps 759 mmHg 71%
    08:00 +15°C° 0 mm 4 mps 759 mmHg 65%
    09:00 +18°C° 0 mm 4 mps 759 mmHg 59%
    10:00 +19°C° 0 mm 4 mps 758 mmHg 55%
    11:00 +20°C° 0 mm 4 mps 758 mmHg 51%
    12:00 +21°C° 0 mm 4 mps 758 mmHg 47%
    13:00 +21°C° 0 mm 4 mps 758 mmHg 48%
    14:00 +21°C° 0 mm 3 mps 758 mmHg 49%
    15:00 +22°C° 0 mm 3 mps 757 mmHg 49%
    16:00 +21°C° 0 mm 3 mps 757 mmHg 55%
    17:00 +20°C° 0 mm 3 mps 757 mmHg 60%
    18:00 +20°C° 0 mm 3 mps 756 mmHg 66%
    19:00 +18°C° 0 mm 3 mps 756 mmHg 73%
    20:00 +16°C° 0 mm 2 mps 757 mmHg 79%
    21:00 +14°C° 0 mm 2 mps 757 mmHg 86%
    22:00 +13°C° 0 mm 1 mps 756 mmHg 87%
    23:00 +12°C° 0 mm 1 mps 756 mmHg 88%

    2 June, Tuesday

    Time Temperature Precipitation Wind Pressure Humidity
    00:00 +12°C° 0 mm 1 mps 756 mmHg 89%
    01:00 +11°C° 0 mm 1 mps 755 mmHg 90%
    02:00 +10°C° 0 mm 2 mps 755 mmHg 90%
    03:00 +10°C° 0 mm 2 mps 755 mmHg 90%
    04:00 +10°C° 0 mm 2 mps 754 mmHg 87%
    05:00 +11°C° 0 mm 3 mps 754 mmHg 84%
    06:00 +11°C° 0 mm 3 mps 754 mmHg 82%
    07:00 +13°C° 0 mm 3 mps 754 mmHg 75%
    08:00 +16°C° 0 mm 3 mps 753 mmHg 68%
    09:00 +18°C° 0 mm 3 mps 753 mmHg 61%
    10:00 +19°C° 0 mm 3 mps 753 mmHg 59%
    11:00 +20°C° 0 mm 3 mps 753 mmHg 56%
    12:00 +21°C° 0 mm 2 mps 752 mmHg 54%
    13:00 +23°C° 0 mm 2 mps 752 mmHg 53%
    14:00 +23°C° 0 mm 2 mps 751 mmHg 53%
    15:00 +24°C° 0 mm 2 mps 750 mmHg 53%
    16:00 +23°C° 0.2 mm 2 mps 750 mmHg 59%
    17:00 +21°C° 0.2 mm 3 mps 749 mmHg 65%
    18:00 +20°C° 0.2 mm 3 mps 749 mmHg 71%
    19:00 +19°C° 0.5 mm 3 mps 749 mmHg 77%
    20:00 +17°C° 0.5 mm 2 mps 749 mmHg 83%
    21:00 +15°C° 0.5 mm 2 mps 748 mmHg 89%
    22:00 +15°C° 0.6 mm 2 mps 748 mmHg 90%
    23:00 +15°C° 0.6 mm 2 mps 748 mmHg 91%
    Show more